RH
91 96 94 92 93 88 89 88 90 91 91 94 93 92 95 95 94 94 94 90 95 88
84 91 92 94 95 91 89 91 93 94 96 97 96 95 96 98 98 97 96 93 93 90
84 90 94 96 97 93 92 89 92 95 95 97 97 97 97 97 96 96 96 97 96 91
84 87 94 96 97 95 92 91 93 93 95 95 96 95 98 96 95 98 97 95 95 93
86 86 92 95 94 95 94 92 94 94 95 94 95 96 97 97 96 98 97 95 98 93
84 84 89 93 94 96 97 94 94 94 95 94 95 97 97 95 96 97 94 92 95 95
84 84 85 88 91 95 96 95 94 94 94 93 94 94 94 95 96 94 96 91 92 90
83 82 82 86 92 94 96 95 95 95 95 94 94 94 96 95 96 96 95 96 92 92
79 80 83 87 89 95 96 96 96 97 97 97 97 100 100 98 96 96 96 98 99 95
76 79 81 79 89 95 97 96 98 99 99 99 99 100 100 100 98 98 98 98 100 100
78 80 82 84 90 93 99 99 99 99 99 99 98 99 99 99 99 99 100 100 100 100
79 82 84 88 91 92 99 99 99 99 99 98 99 98 98 97 98 98 99 100 100 100
82 86 87 89 92 95 99 98 98 99 98 98 98 96 95 94 95 98 97 98 98 98
83 88 89 92 95 99 99 98 98 98 98 98 96 97 92 91 94 95 96 96 97 96
Wind_Speed
5 3 4 5 7 8 8 9 9 11 11 13 13 12 11 10 11 14 14 18 13 11
6 5 6 5 5 7 8 7 9 10 11 11 13 13 13 10 11 11 14 17 19 15
10 8 5 4 6 8 8 9 10 9 9 7 8 9 11 10 10 12 9 8 15 14
11 12 6 5 5 7 9 11 12 10 10 9 9 11 9 10 10 11 12 14 15 16
10 12 10 6 7 6 9 10 11 12 11 11 10 10 10 10 10 11 12 12 10 16
10 11 13 10 7 8 7 11 12 11 12 11 11 10 10 10 10 11 11 13 13 12
10 12 12 14 9 8 10 12 12 12 12 11 11 11 11 11 11 11 8 13 13 16
12 12 14 13 12 9 9 9 12 12 11 11 11 10 12 11 11 11 11 9 14 13
12 13 13 14 16 10 11 9 7 10 10 11 8 9 14 12 10 10 10 9 6 10
13 15 14 16 16 11 12 8 7 7 7 6 4 1 10 12 6 6 5 7 6 3
13 15 15 15 14 15 7 10 8 7 6 7 4 6 11 14 8 8 7 7 5 4
15 16 16 15 15 14 4 8 6 7 7 8 7 10 10 14 10 10 10 9 8 7
14 15 16 15 15 12 5 9 9 10 8 11 9 9 11 11 9 11 9 11 11 14
14 15 15 15 13 3 2 10 12 13 9 10 8 9 14 13 8 10 11 10 9 9
Wind_Direction
281 247 240 218 204 205 197 190 182 190 192 186 191 191 193 200 203 206 206 204 205 192
297 262 259 251 197 208 189 170 171 170 178 177 185 191 193 199 207 210 214 208 195 192
321 290 251 256 239 205 184 181 171 166 169 167 172 185 193 205 214 217 218 209 199 192
329 311 259 249 252 223 185 180 170 186 177 176 185 201 194 207 210 213 215 205 201 192
324 320 291 249 246 253 198 183 181 180 178 177 192 195 198 204 207 211 205 202 202 192
330 325 317 278 251 231 217 187 176 182 185 177 191 195 201 206 204 208 203 201 196 190
327 326 314 303 266 245 225 183 180 179 192 182 187 202 203 203 205 207 206 203 199 201
324 320 317 310 279 246 222 191 180 180 192 189 188 195 199 203 204 202 205 201 207 202
321 323 322 312 306 253 217 200 174 181 188 194 195 192 189 191 201 203 202 199 202 209
332 320 322 318 318 258 215 170 147 133 131 122 120 259 204 199 197 195 202 204 151 95
327 318 315 315 305 300 180 157 141 125 119 113 73 103 117 108 96 83 66 60 60 153
322 313 308 306 303 302 180 147 124 118 116 111 97 104 112 108 97 87 73 67 69 73
315 304 301 298 294 286 240 137 118 103 101 108 109 104 107 109 115 103 95 74 66 83
313 304 296 291 278 210 155 133 117 108 99 98 104 108 110 114 116 121 107 95 82 74